Location: Birkenwerder
(52.6919°N, 13.2774°E)
Time: 00:19:02
(UTC+00:00)

Cosmos 1570 Rocket - Pass Details

Date: 05 October 2020
Orbit: 763 x 788 km, 74.1° (Epoch: 24 October)

Event Time Altitude Azimuth Distance (km) Brightness Sun altitude
Exits shadow 03:23:14 21° 297° (WNW) 1,718 5.4 -17.7°
Maximum altitude 03:24:29 23° 317° (NW) 1,645 5.5 -17.5°
Drops below altitude 10° 03:28:42 10° 8° (N) 2,364 6.8 -16.9°
Sets 03:31:37 0° 23° (NNE) 3,296 7.8 -16.5°
